Tracking 19832 objects as of 24-Aug-2019
HD Live streaming from Space Station
objects crossing your sky now

CZ-4C R/B

Track CZ-4C R/B now!
10-day predictions
CZ-4C R/B is classified as:


NORAD ID: 39211
Int'l Code: 2013-037D
Perigee: 470.9 km
Apogee: 645.4 km
Inclination: 97.9 °
Period: 95.7 minutes
Semi major axis: 6929 km
RCS: Unknown
Launch date: July 19, 2013
Source: People's Republic of China (PRC)
Launch site: Taiyaun Space Center, China (TSC)

Note: This is a ROCKET BODY
aabbcc
Your satellite tracking list
Your tracking list is empty




NASA's NSSDC Master Catalog

Two Line Element Set (TLE):
1 39211U 13037D   19235.85891127 +.00000387 +00000-0 +27364-4 0  9995
2 39211 097.9407 351.2315 0125934 131.3875 229.8260 15.05170226334228
Source of the keplerian elements: AFSPC